Location: Christchurch
(43.5330°S, 172.6330°E)
Time: 22:46:50
(UTC+12:00)

Cosmos 1850 Rocket - Pass Details

Date: 24 January 2019
Orbit: 755 x 785 km, 74.0° (Epoch: 21 April)

Event Time Altitude Azimuth Distance (km) Brightness Sun altitude
Rises 21:36:47 0° 337° (NNW) 3,220 7.1 -5.9°
Reaches altitude 10° 21:39:09 10° 335° (NNW) 2,299 6.4 -6.3°
Maximum altitude 21:44:22 76° 249° (WSW) 794 4.3 -7.1°
Drops below altitude 10° 21:49:39 10° 162° (SSE) 2,318 6.7 -7.8°
Sets 21:52:02 0° 160° (SSE) 3,250 7.5 -8.2°
